Change the Weather History Date:

Tuesday, September 27, 2011

  Actual Average Record
Temperature  
Mean Temperature 59 °F 60 °F  
Max Temperature 69 °F 73 °F 98 °F (2003)
Min Temperature 49 °F 46 °F 26 °F (1972)
Degree Days  
Heating Degree Days 6 6  
Month to date heating degree days 36 90  
Since 1 July heating degree days 65 146  
Cooling Degree Days 0 0  
Month to date cooling degree days 101 36  
Year to date cooling degree days 316 288  
Growing Degree Days 10 (Base 50)    
Moisture  
Dew Point 52 °F    
Average Humidity 73    
Maximum Humidity 93    
Minimum Humidity 52    
Precipitation  
Precipitation 0.06 in 0.06 in 1.24 in (1927)
Month to date precipitation 0.35 1.10  
Year to date precipitation 24.45 23.10  
Snow  
Snow 0.00 in - - ()
Month to date snowfall 0.0  
Snow Depth 0.00 in    
Sea Level Pressure  
Sea Level Pressure 30.14 in    
Wind  
Wind Speed 7 mph (South)    
Max Wind Speed 16 mph    
Max Gust Speed 21 mph    
Visibility 9 miles    
Events Rain    
T = Trace of Precipitation, MM = Missing Value Source: NWS Daily Summary

Daily Weather History Graph

Daily Weather History Graph

Search for Another Location

Airport or City:

Trip Planner

Search our weather history database for the weather conditions in past years. The results will help you decide how hot, cold, wet, or windy it might be!

Date:

Astronomy

Sep. 27, 2011 Rise Set
Actual Time 7:04 AM PDT 7:00 PM PDT
Civil Twilight 6:35 AM PDT 7:29 PM PDT
Nautical Twilight 6:01 AM PDT 8:03 PM PDT
Astronomical Twilight 5:26 AM PDT 8:38 PM PDT
Moon 7:29 AM PDT (9/27) 6:49 PM PDT (9/27)
Length of Visible Light 12h 53m
Length of Day
11h 55m
New Moon, 0% of the Moon is Illuminated
Sep 27
New Moon
Oct 3
First Quarter
Oct 11
Full
Oct 19
Last Quarter
Oct 26
New

Hourly Weather History & Observations

Time (PDT) Temp. Dew Point Humidity Pressure Visibility Wind Dir Wind Speed Gust Speed Precip Events Conditions
12:56 AM 57.0 °F 54.0 °F 89% 30.02 in 10.0 mi SE 11.5 mph - 0.00 in Rain Light Rain
1:56 AM 57.0 °F 54.0 °F 89% 30.02 in 10.0 mi SSE 12.7 mph - 0.00 in   Overcast
2:56 AM 57.0 °F 54.0 °F 89% 30.02 in 10.0 mi SSE 10.4 mph - N/A   Overcast
4:56 AM 55.9 °F 53.1 °F 90% 30.04 in 7.0 mi SSE 11.5 mph - 0.01 in Rain Light Rain
5:05 AM 55.4 °F 53.6 °F 94% 30.05 in 6.0 mi SSE 10.4 mph - 0.01 in Rain Light Rain
5:31 AM 55.4 °F 53.6 °F 94% 30.04 in 8.0 mi South 15.0 mph 20.7 mph 0.01 in Rain Light Rain
5:56 AM 55.9 °F 53.1 °F 90% 30.05 in 10.0 mi South 12.7 mph - 0.02 in   Overcast
6:06 AM 55.4 °F 53.6 °F 94% 30.06 in 9.0 mi South 12.7 mph - 0.00 in Rain Light Rain
6:23 AM 55.4 °F 53.6 °F 94% 30.07 in 4.0 mi SSE 11.5 mph - 0.01 in Rain Rain
6:37 AM 55.4 °F 53.6 °F 94% 30.08 in 7.0 mi South 11.5 mph - 0.02 in Rain Light Rain
6:56 AM 55.9 °F 54.0 °F 93% 30.08 in 4.0 mi SSE 9.2 mph - 0.02 in Rain Light Rain
7:28 AM 55.4 °F 53.6 °F 94% 30.10 in 5.0 mi South 8.1 mph - 0.00 in Rain Light Rain
8:56 AM 57.0 °F 55.0 °F 93% 30.12 in 5.0 mi SSE 4.6 mph - N/A   Overcast
9:53 AM 57.2 °F 55.4 °F 94% 30.15 in 10.0 mi Calm Calm - N/A   Overcast
9:56 AM 57.9 °F 55.0 °F 90% 30.15 in 10.0 mi Calm Calm - N/A   Overcast
10:49 AM 60.8 °F 55.4 °F 82% 30.17 in 10.0 mi South 5.8 mph - N/A   Overcast
10:56 AM 60.1 °F 55.9 °F 86% 30.17 in 10.0 mi SSE 9.2 mph - N/A   Overcast
12:56 PM 63.0 °F 55.9 °F 78% 30.19 in 10.0 mi South 10.4 mph - N/A   Mostly Cloudy
1:56 PM 66.0 °F 55.0 °F 68% 30.19 in 10.0 mi South 9.2 mph - N/A   Mostly Cloudy
3:56 PM 66.0 °F 50.0 °F 56% 30.20 in 10.0 mi NNE 4.6 mph - N/A   Mostly Cloudy
4:56 PM 66.0 °F 48.9 °F 54% 30.21 in 10.0 mi WNW 8.1 mph - N/A   Overcast
5:56 PM 64.9 °F 48.0 °F 54% 30.22 in 10.0 mi WNW 8.1 mph - N/A   Mostly Cloudy
6:56 PM 62.1 °F 46.0 °F 56% 30.22 in 10.0 mi WNW 4.6 mph - N/A   Scattered Clouds
7:56 PM 60.1 °F 46.0 °F 60% 30.25 in 10.0 mi WNW 5.8 mph - N/A   Mostly Cloudy
8:56 PM 59.0 °F 46.0 °F 62% 30.26 in 10.0 mi NW 4.6 mph - N/A   Scattered Clouds
9:56 PM 57.9 °F 46.9 °F 67% 30.27 in 10.0 mi WNW 3.5 mph - N/A   Mostly Cloudy
10:56 PM 55.9 °F 48.0 °F 75% 30.30 in 10.0 mi North 4.6 mph - N/A   Overcast
11:56 PM 53.1 °F 46.9 °F 80% 30.31 in 10.0 mi NNW 3.5 mph - N/A   Clear